User: anonymous
Location: Vancouver
(49.2500°N, 123.1330°W)
Time: 18:04:42
(UTC-07:00)
Language:

Oscar 11 - Orbit

View from above orbital plane
View from above orbital plane
View from above satellite
View from above satellite

Ground track
Ground track

The orbit data is extracted from the following two-line orbital elements,

1 14781U 84021B   14206.12128010  .00000263  00000-0  40040-4 0  5544
2 14781 097.8493 265.5047 0009735 064.6223 295.5997 14.81655827633587
Epoch (UTC): 25 July 2014 02:54:38
Eccentricity: 0.0009735
inclination: 97.8493°
perigee height: 617 km
apogee height: 631 km
right ascension of ascending node: 265.5047°
argument of perigee: 64.6223°
revolutions per day: 14.81655827
mean anomaly at epoch: 295.5997°
orbit number at epoch: 63358

The dashed part of the orbit path shows where the satellite is in the earth's shadow,  

DLR